Location: Bakhuizen
(52.8696°N, 5.4575°E)
Time: 08:34:27
(UTC+00:00)

Resurs 01 Rocket - Pass Details

Date: 11 May 2021
Orbit: 633 x 645 km, 97.9° (Epoch: 20 June)

Event Time Altitude Azimuth Distance (km) Brightness Sun altitude
Exits shadow 20:02:16 - 165° (SSE) 2,828 4.4 -5.6°
Reaches altitude 10° 20:04:11 10° 166° (SSE) 2,038 3.7 -5.8°
Maximum altitude 20:08:38 84° 254° (WSW) 655 1.7 -6.3°
Drops below altitude 10° 20:13:07 10° 344° (NNW) 2,049 5.3 -6.8°
Sets 20:15:20 0° 346° (NNW) 2,961 6.1 -7.0°
